Tracking 21472 objects as of 22-Sep-2020
HD Live streaming from Space Station
objects crossing your sky now

STARLINK-1549

Track STARLINK-1549 now!
10-day predictions
STARLINK-1549 is classified as:


NORAD ID: 46074
Int'l Code: 2020-055AZ
Perigee: 381.1 km
Apogee: 392.5 km
Inclination: 53.0 °
Period: 92.1 minutes
Semi major axis: 6757 km
RCS: Unknown
Launch date: August 7, 2020
Source: United States (US)
Launch site: AIR FORCE EASTERN TEST RANGE (AFETR)
aabbcc
Your satellite tracking list
Your tracking list is empty




NASA's NSSDC Master Catalog

Two Line Element Set (TLE):
1 46074U 20055AZ  20266.50001157  .00010482  00000-0  11998-3 0  9994
2 46074  53.0001  64.9442 0008481  11.0970 132.3996 15.62767649  7980
Source of the keplerian elements: AFSPC